When you browse on this site, cookies collect data to enhance your experience and personalize the content and advertising you see.
Visit our Privacy Policy to learn more. By continuing to use the site, you agree to this use of cookies and data.
  • En España
  • Lista de países
  • Para 7 días
  • Temperatura del agua
  • Mapa Satelital
  • El tiempo en el mapa
  • Informadores
  • user-avatar
    Iniciar sesión

    Tiempo cada hora Bannyy Ostrov

    Hoy, 15 Julio, Lunes

    Tiempo Temperatura Precipitaciones Viento Presión Humedad
    00:00 +13°C° 0 mm 1 mps 740 mmHg 90%
    01:00 +12°C° 0 mm 1 mps 740 mmHg 91%
    02:00 +11°C° 0 mm 1 mps 741 mmHg 90%
    03:00 +11°C° 0 mm 1 mps 741 mmHg 90%
    04:00 +12°C° 0 mm 1 mps 740 mmHg 90%
    05:00 +11°C° 0 mm 0 mps 740 mmHg 90%
    06:00 +12°C° 0 mm 0 mps 741 mmHg 86%
    07:00 +14°C° 0 mm 0 mps 741 mmHg 81%
    08:00 +16°C° 0 mm 1 mps 741 mmHg 77%
    09:00 +18°C° 0.3 mm 1 mps 741 mmHg 76%
    10:00 +19°C° 0.3 mm 1 mps 740 mmHg 74%
    11:00 +18°C° 0.3 mm 2 mps 740 mmHg 72%
    12:00 +20°C° 0.4 mm 1 mps 740 mmHg 70%
    13:00 +21°C° 0.4 mm 1 mps 740 mmHg 68%
    14:00 +21°C° 0 mm 1 mps 741 mmHg 63%
    15:00 +21°C° 0.3 mm 1 mps 741 mmHg 67%
    16:00 +20°C° 0.3 mm 1 mps 741 mmHg 70%
    17:00 +20°C° 0.3 mm 1 mps 740 mmHg 73%
    18:00 +19°C° 0.1 mm 1 mps 740 mmHg 78%
    19:00 +16°C° 0.1 mm 1 mps 740 mmHg 83%
    20:00 +14°C° 0.1 mm 1 mps 740 mmHg 89%
    21:00 +14°C° 0 mm 1 mps 740 mmHg 90%
    22:00 +13°C° 0 mm 1 mps 740 mmHg 91%
    23:00 +12°C° 0 mm 1 mps 740 mmHg 93%

    Mañana, 16 Julio, Martes

    Tiempo Temperatura Precipitaciones Viento Presión Humedad
    00:00 +12°C° 0 mm 1 mps 740 mmHg 93%
    01:00 +11°C° 0 mm 1 mps 740 mmHg 94%
    02:00 +11°C° 0 mm 1 mps 740 mmHg 95%
    03:00 +11°C° 0 mm 1 mps 740 mmHg 95%
    04:00 +11°C° 0 mm 1 mps 740 mmHg 96%
    05:00 +12°C° 0 mm 1 mps 740 mmHg 96%
    06:00 +13°C° 0 mm 1 mps 740 mmHg 93%
    07:00 +15°C° 0 mm 1 mps 740 mmHg 89%
    08:00 +16°C° 0 mm 1 mps 740 mmHg 86%
    09:00 +18°C° 0.1 mm 1 mps 740 mmHg 82%
    10:00 +19°C° 0.1 mm 1 mps 739 mmHg 78%
    11:00 +20°C° 0.1 mm 1 mps 739 mmHg 74%
    12:00 +21°C° 0.3 mm 1 mps 739 mmHg 73%
    13:00 +22°C° 0.3 mm 1 mps 739 mmHg 72%
    14:00 +22°C° 0.3 mm 1 mps 738 mmHg 71%
    15:00 +22°C° 0.6 mm 1 mps 738 mmHg 73%
    16:00 +21°C° 0.6 mm 1 mps 738 mmHg 76%
    17:00 +21°C° 0.6 mm 1 mps 738 mmHg 79%
    18:00 +20°C° 0.3 mm 1 mps 738 mmHg 83%
    19:00 +17°C° 0.3 mm 2 mps 737 mmHg 88%
    20:00 +16°C° 0.3 mm 2 mps 737 mmHg 92%
    21:00 +15°C° 0.2 mm 2 mps 737 mmHg 93%
    22:00 +15°C° 0.2 mm 2 mps 737 mmHg 94%
    23:00 +14°C° 0.2 mm 2 mps 737 mmHg 95%

    Pasado mañana, 17 Julio, Miércoles

    Tiempo Temperatura Precipitaciones Viento Presión Humedad
    00:00 +14°C° 0.2 mm 1 mps 737 mmHg 95%
    01:00 +14°C° 0.2 mm 1 mps 737 mmHg 95%
    02:00 +13°C° 0.2 mm 1 mps 736 mmHg 95%
    03:00 +13°C° 0.3 mm 1 mps 736 mmHg 95%
    04:00 +14°C° 0.3 mm 1 mps 736 mmHg 96%
    05:00 +14°C° 0.3 mm 1 mps 736 mmHg 96%
    06:00 +14°C° 0.3 mm 1 mps 736 mmHg 95%
    07:00 +15°C° 0.3 mm 1 mps 736 mmHg 94%
    08:00 +15°C° 0.3 mm 1 mps 736 mmHg 93%
    09:00 +16°C° 0.3 mm 1 mps 736 mmHg 92%
    10:00 +16°C° 0.3 mm 1 mps 736 mmHg 90%
    11:00 +16°C° 0.3 mm 2 mps 735 mmHg 88%
    12:00 +17°C° 0.6 mm 2 mps 735 mmHg 86%
    13:00 +17°C° 0.6 mm 2 mps 735 mmHg 84%
    14:00 +18°C° 0.6 mm 2 mps 735 mmHg 82%
    15:00 +18°C° 0.6 mm 2 mps 735 mmHg 80%
    16:00 +20°C° 0.6 mm 1 mps 735 mmHg 78%
    17:00 +18°C° 0.6 mm 0 mps 735 mmHg 77%
    18:00 +18°C° 0.4 mm 1 mps 734 mmHg 85%
    19:00 +16°C° 0.4 mm 1 mps 734 mmHg 88%
    20:00 +15°C° 0.4 mm 1 mps 734 mmHg 91%
    21:00 +14°C° 0 mm 1 mps 734 mmHg 92%
    22:00 +14°C° 0 mm 1 mps 734 mmHg 93%
    23:00 +13°C° 0 mm 1 mps 734 mmHg 94%

    18 Julio, Jueves

    Tiempo Temperatura Precipitaciones Viento Presión Humedad
    00:00 +13°C° 0 mm 1 mps 734 mmHg 95%
    01:00 +12°C° 0 mm 1 mps 734 mmHg 95%
    02:00 +12°C° 0 mm 2 mps 734 mmHg 96%
    03:00 +12°C° 0 mm 2 mps 734 mmHg 97%
    04:00 +12°C° 0 mm 2 mps 734 mmHg 97%
    05:00 +12°C° 0 mm 2 mps 734 mmHg 98%
    06:00 +13°C° 0.1 mm 2 mps 734 mmHg 95%
    07:00 +15°C° 0.1 mm 2 mps 734 mmHg 92%
    08:00 +16°C° 0.1 mm 2 mps 733 mmHg 89%
    09:00 +17°C° 1.1 mm 3 mps 734 mmHg 88%
    10:00 +17°C° 1.1 mm 3 mps 734 mmHg 87%
    11:00 +18°C° 1.1 mm 4 mps 734 mmHg 85%
    12:00 +18°C° 0.9 mm 4 mps 734 mmHg 85%
    13:00 +18°C° 0.9 mm 4 mps 734 mmHg 85%
    14:00 +18°C° 0.9 mm 4 mps 734 mmHg 85%
    15:00 +17°C° 0.1 mm 4 mps 734 mmHg 86%
    16:00 +17°C° 0.1 mm 4 mps 734 mmHg 86%
    17:00 +16°C° 0.1 mm 3 mps 734 mmHg 86%
    18:00 +14°C° 0 mm 3 mps 734 mmHg 90%
    19:00 +15°C° 0 mm 2 mps 734 mmHg 93%
    20:00 +14°C° 0 mm 2 mps 734 mmHg 97%
    21:00 +13°C° 0 mm 2 mps 734 mmHg 97%
    22:00 +13°C° 0 mm 1 mps 735 mmHg 97%
    23:00 +13°C° 0 mm 1 mps 735 mmHg 98%

    19 Julio, Viernes

    Tiempo Temperatura Precipitaciones Viento Presión Humedad
    00:00 +13°C° 0 mm 1 mps 735 mmHg 98%
    01:00 +13°C° 0 mm 1 mps 735 mmHg 98%
    02:00 +12°C° 0 mm 1 mps 735 mmHg 98%
    03:00 +13°C° 0 mm 1 mps 735 mmHg 98%
    04:00 +14°C° 0 mm 1 mps 735 mmHg 97%
    05:00 +14°C° 0 mm 2 mps 735 mmHg 97%
    06:00 +15°C° 0.1 mm 2 mps 736 mmHg 95%
    07:00 +16°C° 0.1 mm 2 mps 736 mmHg 94%
    08:00 +17°C° 0.1 mm 3 mps 736 mmHg 92%
    09:00 +16°C° 1.1 mm 3 mps 736 mmHg 93%
    10:00 +16°C° 1.1 mm 3 mps 737 mmHg 94%
    11:00 +15°C° 1.1 mm 4 mps 737 mmHg 94%
    12:00 +15°C° 0.6 mm 4 mps 737 mmHg 95%
    13:00 +14°C° 0.6 mm 4 mps 737 mmHg 96%
    14:00 +13°C° 0.6 mm 4 mps 737 mmHg 97%
    15:00 +13°C° 0.1 mm 4 mps 738 mmHg 97%
    16:00 +13°C° 0.1 mm 4 mps 738 mmHg 97%
    17:00 +14°C° 0.1 mm 4 mps 739 mmHg 97%
    18:00 +14°C° 0 mm 4 mps 739 mmHg 97%
    19:00 +14°C° 0 mm 4 mps 739 mmHg 96%
    20:00 +14°C° 0 mm 4 mps 739 mmHg 96%
    21:00 +14°C° 0 mm 4 mps 740 mmHg 96%
    22:00 +14°C° 0 mm 4 mps 740 mmHg 96%
    23:00 +14°C° 0 mm 4 mps 740 mmHg 96%

    20 Julio, Sábado

    Tiempo Temperatura Precipitaciones Viento Presión Humedad
    00:00 +14°C° 0 mm 4 mps 741 mmHg 96%
    01:00 +14°C° 0 mm 4 mps 741 mmHg 97%
    02:00 +14°C° 0 mm 4 mps 741 mmHg 97%
    03:00 +14°C° 0 mm 3 mps 742 mmHg 97%
    04:00 +14°C° 0 mm 3 mps 742 mmHg 97%
    05:00 +14°C° 0 mm 3 mps 742 mmHg 97%
    06:00 +14°C° 0 mm 3 mps 743 mmHg 95%
    07:00 +16°C° 0 mm 3 mps 743 mmHg 93%
    08:00 +16°C° 0 mm 3 mps 743 mmHg 91%
    09:00 +17°C° 0 mm 3 mps 744 mmHg 88%
    10:00 +18°C° 0 mm 3 mps 744 mmHg 84%
    11:00 +19°C° 0 mm 4 mps 744 mmHg 81%
    12:00 +19°C° 0.2 mm 3 mps 744 mmHg 80%
    13:00 +20°C° 0.2 mm 3 mps 744 mmHg 79%
    14:00 +20°C° 0.2 mm 3 mps 745 mmHg 78%
    15:00 +20°C° 0.6 mm 3 mps 745 mmHg 80%
    16:00 +20°C° 0.6 mm 3 mps 745 mmHg 81%
    17:00 +21°C° 0.6 mm 3 mps 745 mmHg 83%
    18:00 +19°C° 0.3 mm 3 mps 745 mmHg 87%
    19:00 +18°C° 0.3 mm 3 mps 745 mmHg 90%
    20:00 +17°C° 0.3 mm 2 mps 745 mmHg 94%
    21:00 +16°C° 0 mm 2 mps 745 mmHg 94%
    22:00 +16°C° 0 mm 2 mps 746 mmHg 95%
    23:00 +15°C° 0 mm 2 mps 746 mmHg 95%
    Mostrar más